"TOA5","AWS1","CR1000","7964","CR1000.Std.14","CPU:AWS1_114.CR1","64363","TBL110"
"TIMESTAMP","RECORD","Wind_spd_WVc(1)","Wind_spd_WVc(2)","Air_Temp_Avg","Humidity_Avg","SW_upper_Wm2_Avg","Rain_Tot","Press_Avg","Issui_Tot","Depth_cm","SR50A_Raw","Quality","Ground_Temp_Avg(1)","Ground_Temp_Avg(2)","SW_lower_Wm2_Avg","Albedo_Avg","SWC_per(1)","SWC_per(2)","Period(1)","Period(2)"
"TS","RN","","","","","","","","","","","","","","","","","","",""
"","","WVc","WVc","Avg","Avg","Avg","Tot","Avg","Tot","Smp","Smp","Smp","Avg","Avg","Avg","Avg","Smp","Smp","Smp","Smp"
"2017-10-21 00:00:00",310957,0.156,68.54,10.68,100,0,0,867.4044,0,0.84,3.111,194,12.63,12.78,0.6290638,0,51.66,59.2,33.7,35.5
"2017-10-21 00:10:00",310958,0.018,79.84,10.72,100,0,0,867.4066,0,0.661,3.113,198,12.63,12.77,0.5456939,0,51.71,59.2,33.72,35.5
"2017-10-21 00:20:00",310959,0,0,10.68,100,0,0,867.3953,0,0.559,3.114,195,12.63,12.76,0.4547449,0,51.71,59.26,33.72,35.51
"2017-10-21 00:30:00",310960,0,0,10.74,100,0,0,867.3669,0,0.661,3.113,199,12.63,12.75,0.4547449,0,51.71,59.26,33.72,35.51
"2017-10-21 00:40:00",310961,0,0,10.75,100,0,0,867.1976,0,0.588,3.113,200,12.63,12.77,0.6404324,0,51.71,59.2,33.72,35.5
"2017-10-21 00:50:00",310962,0,0,10.69,100,0,0,867.1537,0,0.704,3.114,198,12.63,12.77,0.8564363,0,51.71,59.26,33.72,35.51
"2017-10-21 01:00:00",310963,0,0,10.5,100,0,0,867.3961,0,0.554,3.115,200,12.65,12.77,0.6631697,0,51.66,59.26,33.7,35.51
"2017-10-21 01:10:00",310964,0,0,10.48,100,0,0,867.4003,0,0.651,3.115,195,12.66,12.77,0.4547449,0,51.66,59.2,33.7,35.5
"2017-10-21 01:20:00",310965,0,0,10.29,100,0,0,867.2381,0,0.699,3.115,198,12.67,12.78,0.2614783,0,51.66,59.26,33.7,35.51
"2017-10-21 01:30:00",310966,0,0,10.6,100,0,0,867.1581,0,0.54,3.113,201,12.67,12.78,1.004228,0,51.66,59.2,33.7,35.5
"2017-10-21 01:40:00",310967,0,0,10.98,100,0,0,867.2297,0,0.258,3.116,204,12.65,12.78,1.220232,0,51.66,59.2,33.7,35.5
"2017-10-21 01:50:00",310968,0,0,10.71,100,0,0,867.1939,0,0.355,3.116,202,12.59,12.76,0.4585344,0,51.6,59.2,33.69,35.5
"2017-10-21 02:00:00",310969,0,0,10.68,100,0,0,867.3961,0,0.865,3.111,262,12.59,12.78,0.4547449,0,51.66,59.2,33.7,35.5
"2017-10-21 02:10:00",310970,0,0,10.7,100,0,0,867.3939,0,0.254,3.117,209,12.59,12.79,0.4471658,0,51.66,59.2,33.7,35.5
"2017-10-21 02:20:00",310971,0,0,10.85,100,0.2004445,0,867.2255,0,1.409,3.104,309,12.58,12.8,0.5911684,0.691,51.6,59.2,33.69,35.5
"2017-10-21 02:30:00",310972,0,0,11.1,100,0.08646623,0,867.1539,0,0.215,3.115,212,12.58,12.81,0.4547449,0.514,51.6,59.2,33.69,35.5
"2017-10-21 02:40:00",310973,0.032,106.4,11.19,100,0,0,867.0043,0,0.472,3.112,203,12.58,12.84,0.4547449,0,51.66,59.2,33.7,35.5
"2017-10-21 02:50:00",310974,0,0,11.17,100,0,0,866.9011,0,0.341,3.114,216,12.57,12.84,0.1250549,0,51.6,59.14,33.69,35.48
"2017-10-21 03:00:00",310975,0.405,9.88,11.1,100,0,0,866.7684,0,1.541,3.102,321,12.57,12.84,0.1326339,0,51.6,59.14,33.69,35.48
"2017-10-21 03:10:00",310976,0.179,10.77,11.11,100,0,0,866.8716,0,1.643,3.101,327,12.56,12.84,0.1212653,0,51.66,59.14,33.7,35.48
"2017-10-21 03:20:00",310977,0.011,6.916,10.99,100,0,0,866.8695,0,1.637,3.102,329,12.54,12.84,0.2538992,0,51.6,59.14,33.69,35.48
"2017-10-21 03:30:00",310978,0.034,2.068,10.91,100,0,0,866.9631,0,1.734,3.102,336,12.55,12.84,0.3031633,0,51.6,59.14,33.69,35.48
"2017-10-21 03:40:00",310979,0,0,10.75,100,0,0,866.8981,0,1.452,3.105,325,12.57,12.84,0.003789541,0,51.6,59.14,33.69,35.48
"2017-10-21 03:50:00",310980,0,0,10.74,100,0,0,866.9001,0,1.273,3.107,313,12.58,12.84,0.1856875,0,51.6,59.08,33.69,35.47
"2017-10-21 04:00:00",310981,0.193,187.6,10.63,100,0,0,866.7861,0,1.345,3.107,322,12.58,12.84,0.1667398,0,51.55,59.08,33.68,35.47
"2017-10-21 04:10:00",310982,0,0,10.65,100,0,0,866.6702,0,1.375,3.106,329,12.57,12.84,0.3789541,0,51.6,59.08,33.69,35.47
"2017-10-21 04:20:00",310983,0.169,41.68,10.79,100,0,0,866.8692,0,1.559,3.103,312,12.53,12.84,0.6631697,0,51.55,59.08,33.68,35.47
"2017-10-21 04:30:00",310984,0.373,296.3,10.82,100,0,0,866.9011,0,1.477,3.105,331,12.52,12.84,0.3486378,0,51.55,59.08,33.68,35.47
"2017-10-21 04:40:00",310985,0,0,10.65,100,0,0,866.9254,0,1.525,3.105,351,12.5,12.84,0.3296901,0,51.55,59.08,33.68,35.47
"2017-10-21 04:50:00",310986,0.136,171.5,10.52,100,0,0,866.9906,0,1.447,3.106,328,12.5,12.84,0.4547449,0,51.55,59.08,33.68,35.47
"2017-10-21 05:00:00",310987,0,0,10.55,100,0,0,867.1447,0,1.549,3.105,365,12.51,12.84,0.4547449,0,51.6,59.08,33.69,35.47
"2017-10-21 05:10:00",310988,0.123,179.5,10.57,100,0,0,867.0884,0,1.855,3.102,369,12.49,12.84,0.3903227,0,51.55,59.03,33.68,35.45
"2017-10-21 05:20:00",310989,0.085,179.8,10.78,100,0,0,866.9011,0,1.53,3.104,360,12.49,12.84,0.693486,0,51.55,59.03,33.68,35.45
"2017-10-21 05:30:00",310990,0.253,182.2,10.69,100,0,0,866.9138,0,1.273,3.107,342,12.47,12.84,0.3827437,0,51.55,59.03,33.68,35.45
"2017-10-21 05:40:00",310991,0,0,10.82,100,0,0,866.9011,0,1.38,3.105,341,12.46,12.84,0.4547449,0,51.49,59.03,33.66,35.45
"2017-10-21 05:50:00",310992,0.419,45.07,10.85,100,0,0,866.7768,0,1.235,3.105,301,12.45,12.84,0.3827437,0,51.55,59.03,33.68,35.45
"2017-10-21 06:00:00",310993,0.842,26.86,11.23,100,0.08253595,0,866.8547,0,1.366,3.103,314,12.45,12.84,0.5684311,0.426,51.49,59.03,33.66,35.45
"2017-10-21 06:10:00",310994,0.377,328.1,11.14,100,1.674301,0,866.6484,0,1.487,3.103,350,12.45,12.84,0.7124337,0.77,51.49,59.03,33.66,35.45
"2017-10-21 06:20:00",310995,0.104,308.9,10.88,100,4.449081,0,866.6631,0,1.885,3.101,389,12.45,12.84,0.8223304,0.188,51.49,59.03,33.66,35.45
"2017-10-21 06:30:00",310996,0.199,318.2,10.36,100,9.85715,0,866.8779,0,1.869,3.104,346,12.45,12.84,1.136862,0.117,51.49,58.97,33.66,35.44
"2017-10-21 06:40:00",310997,0.154,358.4,10.03,100,18.82213,0,867.0253,0,1.582,3.108,283,12.46,12.84,2.258566,0.119,51.49,58.97,33.66,35.44
"2017-10-21 06:50:00",310998,0.157,125.1,10.12,100,26.60802,0,866.9116,0,3.295,3.09,387,12.47,12.84,3.308269,0.124,51.49,58.97,33.66,35.44
"2017-10-21 07:00:00",310999,0.042,129.6,10.19,100,37.61674,0,866.9011,0,1.083,3.111,249,12.47,12.84,4.683873,0.125,51.49,58.97,33.66,35.44
"2017-10-21 07:10:00",311000,0.154,181.2,10.42,100,54.45801,0,866.9053,0,1.86,3.101,331,12.48,12.84,6.703698,0.123,51.49,58.97,33.66,35.44
"2017-10-21 07:20:00",311001,0,182.3,10.9,100,67.18034,0,867.116,0,5.826,3.06,380,12.47,12.84,8.170251,0.122,51.49,58.97,33.66,35.44
"2017-10-21 07:30:00",311002,0.068,182.1,11.21,100,67.22356,0,867.1664,0,0.982,3.107,204,12.46,12.84,7.738243,0.115,51.49,58.97,33.66,35.44
"2017-10-21 07:40:00",311003,0,0,11.39,100,81.2704,0,867.2255,0,1.402,3.101,229,12.45,12.82,9.470063,0.116,51.49,58.91,33.66,35.43
"2017-10-21 07:50:00",311004,0.019,182.7,11.74,100,102.2935,0,867.3118,0,0.723,3.106,205,12.45,12.8,11.93705,0.117,51.49,58.97,33.66,35.44
"2017-10-21 08:00:00",311005,0.216,291.2,11.83,100,105.7954,0,867.3846,0,8.06,3.036,358,12.45,12.8,12.6078,0.119,51.49,58.91,33.66,35.43
"2017-10-21 08:10:00",311006,0.139,14.08,11.27,100,117.146,0,867.3907,0,0.657,3.109,213,12.45,12.8,13.97962,0.119,51.49,58.97,33.66,35.44
"2017-10-21 08:20:00",311007,0.026,12.62,11.72,100,116.8473,0,867.3727,0,2.585,3.088,281,12.45,12.8,13.71056,0.117,51.44,58.91,33.65,35.43
"2017-10-21 08:30:00",311008,0.114,333.3,11.61,100,118.5998,0,867.3256,0,1.764,3.097,209,12.45,12.8,14.13873,0.119,51.44,58.97,33.65,35.44
"2017-10-21 08:40:00",311009,0.147,215.8,11.97,100,120.4279,0,867.1973,0,5.688,3.057,298,12.42,12.79,14.56274,0.121,51.49,58.91,33.66,35.43
"2017-10-21 08:50:00",311010,0.406,322.2,11.57,100,123.6562,0,867.2807,0,0.792,3.108,216,12.4,12.79,14.94898,0.121,51.44,58.91,33.65,35.43
"2017-10-21 09:00:00",311011,0.29,329.6,11.27,100,130.0943,0,867.3232,0,7.401,3.044,306,12.4,12.78,15.73298,0.121,51.44,58.91,33.65,35.43
"2017-10-21 09:10:00",311012,0.22,2.754,11.22,100,119.6415,0,867.3301,0,8.24,3.036,308,12.41,12.77,14.19419,0.119,51.44,58.91,33.65,35.43
"2017-10-21 09:20:00",311013,0.375,356.6,11.06,100,124.3007,0,867.3392,0,8.74,3.033,406,12.45,12.77,14.93287,0.12,51.44,58.91,33.65,35.43
"2017-10-21 09:30:00",311014,0.286,6.981,10.76,100,127.5841,0,867.3367,0,8.81,3.031,381,12.45,12.76,15.26941,0.12,51.44,58.91,33.65,35.43
"2017-10-21 09:40:00",311015,0.24,218.2,11.33,100,122.0613,0,867.455,0,8.54,3.033,490,12.46,12.75,14.01129,0.115,51.44,58.91,33.65,35.43
"2017-10-21 09:50:00",311016,0.439,337.3,11.15,100,102.7894,0,867.5378,0,8.25,3.037,466,12.48,12.75,11.7492,0.114,51.38,58.91,33.64,35.43
"2017-10-21 10:00:00",311017,0.304,342.4,10.76,100,116.7678,0,867.3264,0,7.576,3.044,531,12.48,12.75,13.64373,0.117,51.44,58.85,33.65,35.41
"2017-10-21 10:10:00",311018,0,0,11.24,100,154.944,0,867.3094,0,-32.6,3.435,227,12.48,12.76,18.00521,0.116,51.38,58.85,33.64,35.41
"2017-10-21 10:20:00",311019,0,0,11.58,100,164.8393,0,867.3205,0,-30.69,3.415,234,12.54,12.76,19.20681,0.117,51.38,58.85,33.64,35.41
"2017-10-21 10:30:00",311020,0.127,36.24,11.66,100,228.1291,0,867.1935,0,-32.79,3.433,221,12.54,12.75,27.81942,0.122,51.38,58.85,33.64,35.41
"2017-10-21 10:40:00",311021,0.056,198.2,12.45,100,266.8465,0,867.0645,0,-34.54,3.446,299,12.55,12.74,32.82394,0.123,51.38,58.85,33.64,35.41
"2017-10-21 10:50:00",311022,0.134,222.4,12.87,100,254.1369,0,866.8752,0,0.702,3.1,205,12.52,12.77,31.79455,0.125,51.44,58.85,33.65,35.41
"2017-10-21 11:00:00",311023,0.058,333.1,12.97,99.6,198.2517,0,866.8096,0,1.599,3.092,208,12.54,12.74,24.26484,0.122,51.38,58.85,33.64,35.41
"2017-10-21 11:10:00",311024,0.232,320.3,12.74,100,151.1173,0,866.8096,0,2.564,3.084,225,12.51,12.75,18.39602,0.122,51.38,58.79,33.64,35.4
"2017-10-21 11:20:00",311025,0.203,309.9,12.65,100,160.5021,0,866.6916,0,7.963,3.031,450,12.5,12.75,20.01342,0.125,51.38,58.79,33.64,35.4
"2017-10-21 11:30:00",311026,0.022,312.8,12.83,99.6,165.3499,0,866.8096,0,1.297,3.095,208,12.56,12.75,20.24065,0.122,51.38,58.79,33.64,35.4
"2017-10-21 11:40:00",311027,0.355,336.6,12.5,99.7,150.2115,0,866.8096,0,8.37,3.03,360,12.65,12.75,18.43364,0.123,51.38,58.79,33.64,35.4
"2017-10-21 11:50:00",311028,0.396,3.112,11.9,100,132.2012,0,866.8096,0,-30.09,3.41,206,12.62,12.74,16.29706,0.123,51.33,58.79,33.62,35.4
"2017-10-21 12:00:00",311029,0.108,8.17,11.54,100,123.8718,0,866.6095,0,-31.06,3.418,249,12.66,12.7,15.19089,0.123,51.38,58.79,33.64,35.4
"2017-10-21 12:10:00",311030,0.122,175.9,11.91,100,138.629,0,866.3926,0,7.553,3.038,415,12.66,12.71,17.02062,0.123,51.33,58.79,33.62,35.4
"2017-10-21 12:20:00",311031,0.029,287.1,12.11,100,113.0554,0,866.3041,0,2.492,3.088,212,12.68,12.7,13.46724,0.119,51.33,58.73,33.62,35.39
"2017-10-21 12:30:00",311032,0.104,25.2,11.81,100,86.31503,0,866.3337,0,8.21,3.032,474,12.67,12.73,9.929008,0.115,51.33,58.73,33.62,35.39
"2017-10-21 12:40:00",311033,0.15,92.6,12.12,100,82.48824,0,866.3189,0,4.44,3.068,251,12.7,12.72,9.444112,0.114,51.33,58.73,33.62,35.39
"2017-10-21 12:50:00",311034,0.106,79.21,12.19,100,86.06358,0,866.4326,0,2.144,3.09,222,12.74,12.68,10.14873,0.117,51.33,58.73,33.62,35.39
"2017-10-21 13:00:00",311035,0.014,118,12.35,100,124.0054,0,866.1863,0,3.534,3.075,237,12.75,12.72,15.09997,0.122,51.27,58.73,33.61,35.39
"2017-10-21 13:10:00",311036,0.363,64.04,12.47,100,147.862,0,865.8621,0,2.907,3.083,223,12.75,12.74,18.68366,0.126,51.33,58.73,33.62,35.39
"2017-10-21 13:20:00",311037,0.179,316.2,12.42,100,120.6354,0,865.8157,0,2.862,3.082,210,12.78,12.75,15.05085,0.125,51.33,58.73,33.62,35.39
"2017-10-21 13:30:00",311038,0.323,313.5,12.06,100,50.94061,0,866.119,0,1.71,3.097,209,12.85,12.76,5.735618,0.112,51.27,58.73,33.61,35.39
"2017-10-21 13:40:00",311039,0.222,12.33,11.61,100,66.18209,0,866.0557,0,2.835,3.086,207,12.85,12.76,8.285272,0.124,51.27,58.73,33.61,35.39
"2017-10-21 13:50:00",311040,0.115,123.7,11.85,100,141.18,0,865.8347,0,4.585,3.067,250,12.85,12.75,18.77904,0.133,51.27,58.67,33.61,35.37
"2017-10-21 14:00:00",311041,0.724,64.8,12.28,100,163.0392,0,865.8557,0,3.532,3.075,232,12.85,12.76,21.72989,0.133,51.27,58.67,33.61,35.37
"2017-10-21 14:10:00",311042,1.031,34.38,12.25,100,165.7883,0,866.0157,0,7.089,3.042,428,12.87,12.76,22.22274,0.134,51.27,58.67,33.61,35.37
"2017-10-21 14:20:00",311043,0.284,292.2,12.27,100,60.03404,0,866.2768,0,1.83,3.093,253,12.93,12.77,7.410273,0.122,51.27,58.67,33.61,35.37
"2017-10-21 14:30:00",311044,0.302,33.4,11.98,100,79.27287,0,866.2494,0,0.339,3.11,238,12.93,12.76,10.12252,0.128,51.27,58.67,33.61,35.37
"2017-10-21 14:40:00",311045,0.132,29.65,11.9,100,67.51999,0,866.2999,0,1.287,3.1,224,12.89,12.76,8.281247,0.123,51.21,58.67,33.6,35.37
"2017-10-21 14:50:00",311046,0.13,280.9,12,100,42.39842,0,866.2916,0,1.514,3.098,235,12.88,12.76,5.083973,0.12,51.27,58.67,33.61,35.37
"2017-10-21 15:00:00",311047,0.157,69.15,11.98,100,31.67227,0,866.2999,0,1.104,3.102,216,12.92,12.77,4.05735,0.128,51.21,58.67,33.6,35.37
"2017-10-21 15:10:00",311048,0.2,147.3,11.94,100,37.94727,0,866.2094,0,1.568,3.097,211,12.94,12.79,4.879463,0.129,51.27,58.67,33.61,35.37
"2017-10-21 15:20:00",311049,0.639,54.56,12.02,100,40.63076,0,866.0684,0,-32.62,3.431,328,12.94,12.81,5.746996,0.141,51.21,58.61,33.6,35.36
"2017-10-21 15:30:00",311050,0.884,12.16,12.29,99.7,48.55328,0,866.1863,0,2.089,3.089,201,12.98,12.82,7.470941,0.154,51.21,58.61,33.6,35.36
"2017-10-21 15:40:00",311051,0.5,323,12.2,99,37.23081,0,866.3055,0,2.06,3.093,206,13.03,12.83,5.235931,0.14,51.21,58.61,33.6,35.36
"2017-10-21 15:50:00",311052,0.212,354,11.9,100,36.66918,0,866.3334,0,2.034,3.093,202,13.04,12.83,4.853312,0.133,51.21,58.61,33.6,35.36
"2017-10-21 16:00:00",311053,0.183,26.54,11.98,100,31.42039,0,866.3079,0,1.801,3.095,203,13.05,12.84,4.2283,0.135,51.21,58.67,33.6,35.37
"2017-10-21 16:10:00",311054,0.319,136.6,11.89,100,30.06591,0,866.2243,0,2.713,3.086,217,13.06,12.85,4.061755,0.135,51.21,58.61,33.6,35.36
"2017-10-21 16:20:00",311055,0.169,285.2,12.01,100,17.18113,0,866.3034,0,1.633,3.097,236,13.1,12.86,2.462906,0.144,51.21,58.61,33.6,35.36
"2017-10-21 16:30:00",311056,0.286,109,11.86,100,11.25928,0,866.327,0,1.448,3.099,286,13.11,12.86,1.659674,0.145,51.16,58.61,33.58,35.36
"2017-10-21 16:40:00",311057,0.054,141.8,11.89,100,9.349672,0,866.2081,0,2.974,3.084,275,13.14,12.87,1.46269,0.158,51.21,58.56,33.6,35.35
"2017-10-21 16:50:00",311058,0.493,70.02,11.78,100,4.869488,0,866.0853,0,1.868,3.096,225,13.14,12.88,0.9663067,0.202,51.16,58.61,33.58,35.36
"2017-10-21 17:00:00",311059,0.506,180.7,11.65,100,2.027989,0,866.1603,0,1.457,3.1,236,13.14,12.88,0.5229475,0.287,51.21,58.61,33.6,35.36
"2017-10-21 17:10:00",311060,0.157,292.2,11.64,100,0.2711872,0,866.3519,0,2.376,3.091,206,13.15,12.89,0.3221087,0.506,51.16,58.61,33.58,35.36
"2017-10-21 17:20:00",311061,0,0,11.65,100,0,0,866.3699,0,2.479,3.09,210,13.14,12.88,0.2652641,0,51.16,58.56,33.58,35.35
"2017-10-21 17:30:00",311062,0.397,131.8,11.55,100,0,0,866.3654,0,2.117,3.094,209,13.15,12.89,0.223581,0,51.16,58.61,33.58,35.36
"2017-10-21 17:40:00",311063,0.406,144.3,11.62,100,0,0,866.321,0,2.068,3.094,202,13.15,12.89,0.4395852,0,51.16,58.56,33.58,35.35
"2017-10-21 17:50:00",311064,0.279,137.1,11.66,100,0,0,866.0646,0,1.996,3.094,212,13.15,12.89,0.1856874,0,51.16,58.56,33.58,35.35
"2017-10-21 18:00:00",311065,0.31,187,11.82,100,0,0,865.8823,0,2.369,3.088,209,13.15,12.91,0.4812717,0,51.16,58.56,33.58,35.35
"2017-10-21 18:10:00",311066,0.423,285.7,12.1,100,0,0,865.9568,0,2.087,3.091,225,13.15,12.93,0.5343253,0,51.1,58.56,33.57,35.35
"2017-10-21 18:20:00",311067,0.028,238.8,12.05,100,0,0,866.1359,0,2.08,3.092,211,13.15,12.93,0.4547449,0,51.16,58.56,33.58,35.35
"2017-10-21 18:30:00",311068,0.081,3.017,11.97,100,0,0,866.1414,0,1.876,3.094,205,13.15,12.95,0.4547449,0,51.16,58.56,33.58,35.35
"2017-10-21 18:40:00",311069,0.176,308.2,11.87,100,0,0,866.366,0,1.972,3.094,219,13.15,12.99,0.4471658,0,51.1,58.56,33.57,35.35
"2017-10-21 18:50:00",311070,0.201,243.3,11.81,100,0,0,866.4454,0,1.973,3.094,211,13.15,13.01,0.2501097,0,51.1,58.56,33.57,35.35
"2017-10-21 19:00:00",311071,0.11,78.31,11.7,100,0,0,866.5427,0,1.966,3.095,205,13.15,13.01,0.2501097,0,51.16,58.5,33.58,35.33
"2017-10-21 19:10:00",311072,0.132,303,11.76,100,0,0,866.6413,0,2.609,3.088,224,13.17,13.02,0.4244286,0,51.1,58.5,33.57,35.33
"2017-10-21 19:20:00",311073,0.195,301.9,11.77,100,0,0,866.6962,0,1.485,3.099,203,13.17,13,0.4547449,0,51.1,58.5,33.57,35.33
"2017-10-21 19:30:00",311074,0,0,11.68,100,0,0,866.8896,0,1.402,3.101,202,13.14,12.99,0.1212653,0,51.1,58.5,33.57,35.33
"2017-10-21 19:40:00",311075,0,0,11.59,100,0,0,867.0629,0,1.456,3.1,202,13.11,12.98,0.2387411,0,51.1,58.5,33.57,35.33
"2017-10-21 19:50:00",311076,0.069,190.6,11.61,100,0,0,867.1418,0,1.378,3.101,202,13.11,12.98,0.3296901,0,51.1,58.5,33.57,35.33
"2017-10-21 20:00:00",311077,0.128,121.5,11.56,100,0,0,867.1144,0,1.858,3.097,203,13.1,12.97,0.4168495,0,51.1,58.44,33.57,35.32
"2017-10-21 20:10:00",311078,0.24,175.6,11.57,100,0,0,867.152,0,1.203,3.102,204,13.09,12.97,0.2387411,0,51.1,58.5,33.57,35.33
"2017-10-21 20:20:00",311079,0.156,110.9,11.66,100,0,0,867.1242,0,1.402,3.101,221,13.06,12.98,0.2652679,0,51.1,58.44,33.57,35.32
"2017-10-21 20:30:00",311080,0.073,352.1,11.77,100,0,0,866.9137,0,-31.99,3.426,224,13.02,12.98,0.6252743,0,51.1,58.44,33.57,35.32
"2017-10-21 20:40:00",311081,0,0,11.95,100,0,0,866.767,0,9.36,3.021,453,13.02,12.98,0.6139057,0,51.1,58.44,33.57,35.32
"2017-10-21 20:50:00",311082,0.168,188.3,11.82,100,0,0,866.6379,0,9.26,3.024,358,13.03,13.02,0.5987474,0,51.05,58.44,33.56,35.32
"2017-10-21 21:00:00",311083,0.025,195.2,11.66,100,0,0,866.6455,0,9.63,3.019,384,13.03,13.02,0.4850613,0,51.1,58.44,33.57,35.32
"2017-10-21 21:10:00",311084,0,0,11.78,100,0,0,866.6426,0,9.17,3.024,317,13.02,13.03,0.553273,0,51.05,58.44,33.56,35.32
"2017-10-21 21:20:00",311085,0.056,191.3,11.7,100,0,0,866.6508,0,9.27,3.023,326,13.04,13.02,0.4585344,0,51.05,58.44,33.56,35.32
"2017-10-21 21:30:00",311086,0.102,187.9,11.67,100,0,0,866.6469,0,9.16,3.025,322,13.08,13.02,0.4547449,0,51.1,58.38,33.57,35.31
"2017-10-21 21:40:00",311087,0.043,152,11.75,100,0,0,866.6415,0,9.58,3.02,335,13.08,13.02,0.4547449,0,51.05,58.38,33.56,35.31
"2017-10-21 21:50:00",311088,0.049,123,11.67,100,0,0,866.4518,0,9.27,3.023,331,13.05,13.02,0.4547449,0,51.05,58.38,33.56,35.31
"2017-10-21 22:00:00",311089,0.009,146.3,11.87,100,0,0,866.3358,0,9.73,3.018,385,13.02,13.02,0.5760102,0,51.05,58.38,33.56,35.31
"2017-10-21 22:10:00",311090,0,0,11.74,100,0,0,866.1362,0,9.42,3.022,383,13.02,13.02,0.4547449,0,51.1,58.38,33.57,35.31
"2017-10-21 22:20:00",311091,0.38,216.7,11.71,100,0,0,866.1337,0,3.991,3.074,278,13.02,13.02,0.5153776,0,51.05,58.38,33.56,35.31
"2017-10-21 22:30:00",311092,0.571,14.87,12.05,99.8,0,0,866.1405,0,-31.38,3.419,268,13.02,13.02,1.246759,0,51.05,58.38,33.56,35.31
"2017-10-21 22:40:00",311093,0.228,22.48,12.04,98.6,0,0,866.0302,0,-0.654,3.119,218,13.02,13.03,0.9132794,0,51.05,58.38,33.56,35.31
"2017-10-21 22:50:00",311094,0.428,54.08,11.82,99.9,0,0,865.8879,0,9.89,3.016,349,13.01,13.06,0.5381148,0,51.05,58.38,33.56,35.31
"2017-10-21 23:00:00",311095,0.569,19.98,12.21,97.4,0,0,865.861,0,2.525,3.086,250,12.99,13.09,1.523396,0,51.05,58.38,33.56,35.31
"2017-10-21 23:10:00",311096,0.492,323,12.26,94.4,0,0,865.7988,0,10.5,3.008,428,12.95,13.1,1.364235,0,51.05,58.38,33.56,35.31
"2017-10-21 23:20:00",311097,0.271,299.7,12.2,94.7,0,0.5,865.6487,0,-38.59,3.489,480,12.94,13.1,0.9398062,0,51.05,58.38,33.56,35.31
"2017-10-21 23:30:00",311098,0.126,334.3,11.87,98.6,0,0,865.6232,0,-34.06,3.447,249,12.96,13.1,0.3486378,0,50.99,58.32,33.54,35.29
"2017-10-21 23:40:00",311099,0.142,156.9,11.79,100,0,0,865.6074,0,1.251,3.102,294,12.97,13.1,0.3524273,0,51.05,58.32,33.56,35.29
"2017-10-21 23:50:00",311100,0.083,38.47,11.72,100,0,0,865.5107,0,-31.45,3.421,204,12.97,13.1,0.3637959,0,51.05,58.38,33.56,35.31
